Flag for Niger Weather past 2 weeks in Niamey, Niger

Now
91 °F

Passing clouds.


Feels Like: 92 °F
Forecast: 79 / 93 °F
Wind: 14 mph from West

Location: Niamey-Aero

Current Time: Jul 31, 2014 at 2:01:15 PM

Latest Report: Jul 31, 2014 at 1:00 PM


Visibility: N/A

Pressure: 29.95 "Hg

Humidity: 38%

Dew point: 63 °F

Location of NiameyLocation

Historic Weather in Niamey — Graph

°F

Niamey temperature yesterday

Maximum temperature yesterday: 99 °F (at 3:00 PM)
Minimum temperature yesterday: 82 °F (at 5:00 AM)
Average temperature yesterday: 90 °F

Past Weeks' High & Low Weather Summary

 TemperatureHumidityPressure
High99 °F (Jul 20, 5:00 PM)100% (Jul 22, 11:00 AM)30.04 "Hg (Jul 22, 11:00 AM)
Low72 °F (Jul 17, 5:00 AM)31% (Jul 30, 4:00 PM)29.77 "Hg (Jul 16, 5:00 PM)
Average86 °F64%29.90 "Hg
* Reported Jul 16 12:00 Noon — Jul 31 12:00 Noon, Niamey, Weather by CustomWeather, © 2014

Note: Actual official high and low records may vary slightly from our data, if they occured in-between our weather recording intervals... More about our weather records

Advertising

Niamey weather history for previous 24 hours

 ConditionsComfort  
Time TempWeatherWind HumidityBarometerVisibility
12:00 PM
Jul 31
88 °FPassing clouds.16 mph46%29.95 "HgN/A
11:00 AM84 °FPassing clouds.14 mph55%29.98 "HgN/A
10:00 AM82 °FPassing clouds.15 mph62%29.98 "HgN/A
9:00 AM82 °FPassing clouds.10 mph66%29.98 "HgN/A
8:00 AM81 °FPartly sunny.8 mph70%29.95 "HgN/A
7:00 AM81 °FPartly sunny.8 mph70%29.95 "HgN/A
6:00 AM81 °FClear.9 mph66%29.89 "Hg10 mi
5:00 AM81 °FClear.12 mph66%29.89 "Hg10 mi
4:00 AM82 °FClear.13 mph66%29.86 "Hg10 mi
3:00 AM86 °FClear.15 mph52%29.86 "Hg10 mi
2:00 AM88 °FClear.12 mph49%29.86 "Hg10 mi
1:00 AM91 °FClear.8 mph44%29.89 "Hg10 mi
12:00 AM91 °FThunderstorms. Passing clouds.5 mph46%29.89 "HgN/A
11:00 PM
Jul 30
93 °FThunderstorms. Passing clouds.3 mph41%29.89 "HgN/A
10:00 PM93 °FThunderstorms. Passing clouds.2 mph41%29.86 "HgN/A
9:00 PM93 °FPassing clouds.3 mph39%29.86 "HgN/A
8:00 PM95 °FPassing clouds.3 mph34%29.83 "HgN/A
7:00 PM97 °FPassing clouds.5 mph32%29.83 "HgN/A
6:00 PM99 °FPassing clouds.5 mph31%29.83 "HgN/A
5:00 PM99 °FScattered clouds.6 mph31%29.83 "HgN/A
4:00 PM99 °FScattered clouds.5 mph31%29.83 "HgN/A
3:00 PM99 °FScattered clouds.5 mph33%29.83 "HgN/A
2:00 PM97 °FScattered clouds.6 mph37%29.86 "HgN/A
Weather by CustomWeather, © 2014

See weather overviewHow to use our weather pages